Location: Mainz-Finthen
(49.9906°N, 8.1713°E)
Time: 12:15:51
(UTC+00:00)

NOAA 15 - Visible Passes

Search period start: 06 December 2021 00:00
Search period end: 16 December 2021 00:00
Orbit: 797 x 813 km, 98.7° (Epoch: 06 December)

Date Brightness Start Highest point End Pass type
(mag) Time Alt. Az. Time Alt. Az. Time Alt. Az.
06 Dec 5.7 16:41:47 10° ESE 16:45:39 21° ENE 16:49:32 10° N visible
06 Dec 4.7 18:19:38 10° S 18:24:55 74° WSW 18:30:13 10° NNW visible
06 Dec 7.5 20:03:46 10° WSW 20:05:37 12° W 20:07:28 10° WNW visible
07 Dec 6.8 06:30:13 10° NNE 06:34:49 30° E 06:39:22 10° SSE visible
07 Dec 6.1 16:18:03 10° E 16:20:48 14° NE 16:23:33 10° NNE visible
07 Dec 4.4 17:54:27 10° SSE 17:59:42 72° ENE 18:04:58 10° NNW visible
07 Dec 7.0 19:36:18 10° SW 19:40:02 19° W 19:43:45 10° NW visible
08 Dec 7.3 06:05:38 10° NE 06:09:20 19° E 06:12:59 10° SE visible
08 Dec 4.8 17:29:34 10° SE 17:34:35 46° ENE 17:39:36 10° N visible
08 Dec 6.3 19:09:56 10° SSW 19:14:32 30° W 19:19:10 10° NNW visible
09 Dec 7.7 05:41:59 10° ENE 05:43:43 11° E 05:45:27 10° ESE visible
09 Dec 5.3 17:05:00 10° ESE 17:09:33 31° ENE 17:14:07 10° N visible
09 Dec 5.5 18:44:04 10° S 18:49:09 47° W 18:54:15 10° NNW visible
10 Dec 5.8 16:40:47 10° ESE 16:44:37 21° ENE 16:48:26 10° N visible
10 Dec 4.7 18:18:35 10° S 18:23:51 75° WSW 18:29:09 10° NNW visible
10 Dec 7.5 20:02:34 10° WSW 20:04:32 12° W 20:06:30 10° WNW visible
11 Dec 6.8 06:29:10 10° NE 06:33:44 29° E 06:38:15 10° SSE visible
11 Dec 6.1 16:17:04 10° E 16:19:45 14° NE 16:22:25 10° NNE visible
11 Dec 4.4 17:53:24 10° SSE 17:58:39 71° ENE 18:03:54 10° N visible
11 Dec 6.9 19:35:11 10° SW 19:38:57 20° W 19:42:43 10° NW visible
12 Dec 7.3 06:04:37 10° NE 06:08:14 19° E 06:11:50 10° SE visible
12 Dec 4.8 17:28:32 10° SE 17:33:32 45° ENE 17:38:31 10° N visible
12 Dec 6.2 19:08:51 10° SSW 19:13:28 31° W 19:18:07 10° NNW visible
13 Dec 7.8 05:41:04 10° ENE 05:42:38 11° E 05:44:13 10° ESE visible
13 Dec 5.3 17:03:59 10° ESE 17:08:30 30° ENE 17:13:02 10° N visible
13 Dec 5.4 18:42:59 10° S 18:48:05 48° W 18:53:11 10° NNW visible
14 Dec 5.8 16:39:47 10° ESE 16:43:33 20° ENE 16:47:20 10° N visible
14 Dec 4.6 18:17:31 10° S 18:22:47 77° WSW 18:28:04 10° NNW visible
14 Dec 7.4 20:01:23 10° WSW 20:03:27 12° W 20:05:32 10° WNW visible
15 Dec 6.8 06:28:08 10° NE 06:32:39 29° E 06:37:09 10° SSE visible
15 Dec 6.2 16:16:07 10° E 16:18:42 14° NE 16:21:18 10° NNE visible
15 Dec 4.4 17:52:21 10° SSE 17:57:35 69° ENE 18:02:49 10° N visible
15 Dec 6.9 19:34:04 10° SW 19:37:52 20° W 19:41:41 10° NW visible
